User: anonymous   Login
Location: Newark
(19.5361°N, 155.5761°W)
Time: 02:31:59
(UTC+00:00)
Language:

PRISM - Orbit

View from above orbital plane
View from above orbital plane
View from above satellite
View from above satellite

Ground track
Ground track

The orbit data is extracted from the following two-line orbital elements,

1 33493U 09002B   20092.05227354 +.00000677 +00000-0 +64377-4 0  9995
2 33493 098.1394 029.1656 0014014 317.4439 042.5694 14.96964518608128
Epoch (UTC): 01 April 2020 01:15:16
Eccentricity: 0.0014014
inclination: 98.1394°
perigee height: 566 km
apogee height: 586 km
right ascension of ascending node: 29.1656°
argument of perigee: 317.4439°
revolutions per day: 14.96964518
mean anomaly at epoch: 42.5694°
orbit number at epoch: 60812

The dashed part of the orbit path shows where the satellite is in the earth's shadow,  

DLR